{"data":{"norad_id":60400,"intl_designator":"2024-141C","name":"STARLINK-11234 [DTC]","alt_names":[],"object_type":"PAYLOAD","status":"ACTIVE","operator":null,"country":"US","launch_date":"2024-08-10","launch_site_code":"AFETR","launch_vehicle":null,"mission":null,"orbit_class":"UNKNOWN","rcs_meters":null,"size_class":null,"mass_kg":null,"dimensions":null,"purposes":["comms"],"wikipedia_slug":null,"has_3d_model":false,"image_url":null,"decayed_at":null,"tle_current":{"epoch":"2026-09-21T01:51:20.905920Z","epoch_age_seconds":135754,"freshness":"FRESH","line1":"1 60400U 24141C   26264.07732530  .00000512  00000+0  90873-5 0  9998","line2":"2 60400  53.1611 202.8592 0001425  60.2974 299.8186 15.69702868122388","mean_motion":15.69702868,"eccentricity":0.0001425,"inclination_deg":53.1611,"raan_deg":202.8592,"arg_perigee_deg":60.2974,"mean_anomaly_deg":299.8186,"bstar":9.0873e-6,"rev_number":12238,"period_min":91.737107025532,"perigee_km":358.78701105834,"apogee_km":360.70730804381,"semimajor_km":6737.8841595511,"source":"CELESTRAK","updated_at":"2026-09-22T09:00:49.228856Z"}}}